Powrót do katalogu

JILIN-01-10

AktywnyNaukaSSO
NORAD 43946·PAYLOAD·🇨🇳 China

Wystrzelony Jan 21, 2019 z Jiuquan Satellite Launch Center

Loading…

Następne Przeloty (najbliższe 24 godziny)

TLE

ŚwieżeSource: Space-Track

Epoka: Sep 14, 2026, 13:24 UTC

1 43946U 19005E   26257.55857044  .00004766  00000-0  18498-3 0  9997
2 43946  97.4802 356.4243 0007095 334.0395  26.0486 15.26568938422943

Śledź JILIN-01-10 w czasie rzeczywistym z AllMySat

Download on the App Store